Ely, MN

8:36 PM CST on December 10, 2016 (GMT -0600)
Ely Municipal

Weather History for KELO - January, 2013

Change the Weather History Date:

Wednesday, January 30, 2013

  Actual Average Record
Temperature  
Mean Temperature 10 °F -  
Max Temperature 19 °F 21 °F 41 °F (1999)
Min Temperature 1 °F 1 °F -27 °F (2004)
Degree Days  
Heating Degree Days 55    
Moisture  
Dew Point 4 °F    
Average Humidity 81    
Maximum Humidity 93    
Minimum Humidity 72    
Precipitation  
Precipitation 0.00 in - - ()
Sea Level Pressure  
Sea Level Pressure 29.62 in    
Wind  
Wind Speed 8 mph (NNW)    
Max Wind Speed 14 mph    
Max Gust Speed 22 mph    
Visibility 8 miles    
Events Snow    
Averages and records for this station are not official NWS values.
T = Trace of Precipitation, MM = Missing Value Source: NWS Daily Summary

Daily Weather History Graph

Daily Weather History Graph

Search for Another Location

Airport or City:

Trip Planner

Search our weather history database for the weather conditions in past years. The results will help you decide how hot, cold, wet, or windy it might be!

Date:

Astronomy

Jan. 30, 2013 Rise Set
Actual Time 7:36 AM CST 5:05 PM CST
Civil Twilight 7:03 AM CST 5:38 PM CST
Nautical Twilight 6:26 AM CST 6:15 PM CST
Astronomical Twilight 5:49 AM CST 6:52 PM CST
Moon 9:26 PM CST (1/30) 8:44 AM CST (1/30)
Length of Visible Light 10h 35m
Length of Day
9h 28m
Waning Gibbous, 87% of the Moon is Illuminated
Jan 30
Waning Gibbous
Feb 3
Last Quarter
Feb 10
New
Feb 17
First Quarter
Feb 25
Full

Hourly Weather History & Observations

Time (CST) Temp. Windchill Dew Point Humidity Pressure Visibility Wind Dir Wind Speed Gust Speed Precip Events Conditions
12:13 AM 19.4 °F 8.6 °F 17.6 °F 93% 29.70 in 10.0 mi NW 9.2 mph 16.1 mph N/A Snow Light Snow
12:33 AM 19.4 °F 10.4 °F 17.6 °F 93% 29.70 in 7.0 mi NW 6.9 mph - N/A Snow Light Snow
12:53 AM 19.4 °F 10.4 °F 17.6 °F 93% 29.67 in 7.0 mi NW 6.9 mph - N/A Snow Light Snow
1:12 AM 17.6 °F 8.2 °F 15.8 °F 93% 29.68 in 7.0 mi NW 6.9 mph - N/A Snow Light Snow
1:33 AM 17.6 °F 8.2 °F 15.8 °F 93% 29.66 in 7.0 mi NW 6.9 mph - N/A Snow Light Snow
1:53 AM 17.6 °F 7.3 °F 15.8 °F 93% 29.66 in 7.0 mi NW 8.1 mph - N/A Snow Light Snow
2:12 AM 17.6 °F 6.4 °F 15.8 °F 93% 29.65 in 7.0 mi NW 9.2 mph 18.4 mph N/A Snow Light Snow
2:33 AM 17.6 °F 5.7 °F 14.0 °F 86% 29.64 in 7.0 mi NW 10.4 mph 17.3 mph N/A Snow Light Snow
2:53 AM 15.8 °F 5.1 °F 12.2 °F 86% 29.65 in 10.0 mi NW 8.1 mph 16.1 mph N/A Snow Light Snow
3:12 AM 15.8 °F 5.1 °F 12.2 °F 86% 29.63 in 7.0 mi NW 8.1 mph 17.3 mph N/A Snow Light Snow
3:33 AM 15.8 °F 7.2 °F 12.2 °F 86% 29.64 in 7.0 mi NW 5.8 mph - N/A Snow Light Snow
3:53 AM 15.8 °F 4.2 °F 12.2 °F 86% 29.63 in 5.0 mi NNW 9.2 mph - N/A Snow Light Snow
4:10 AM 15.8 °F 4.2 °F 10.4 °F 79% 29.63 in 7.0 mi NW 9.2 mph - N/A Snow Light Snow
4:33 AM 14.0 °F 1.2 °F 10.4 °F 86% 29.64 in 5.0 mi NW 10.4 mph 17.3 mph N/A Snow Light Snow
4:52 AM 14.0 °F 2.9 °F 10.4 °F 86% 29.64 in 5.0 mi NNW 8.1 mph - N/A Snow Light Snow
5:13 AM 14.0 °F 2.0 °F 10.4 °F 86% 29.64 in 7.0 mi NNW 9.2 mph 16.1 mph N/A Snow Light Snow
5:33 AM 12.2 °F -0.2 °F 10.4 °F 92% 29.64 in 5.0 mi NW 9.2 mph - N/A Snow Light Snow
5:52 AM 12.2 °F 0.7 °F 10.4 °F 92% 29.64 in 5.0 mi NW 8.1 mph 17.3 mph N/A Snow Light Snow
6:13 AM 12.2 °F 0.7 °F 8.6 °F 85% 29.64 in 7.0 mi NNW 8.1 mph 16.1 mph N/A Snow Light Snow
6:33 AM 12.2 °F -3.1 °F 8.6 °F 85% 29.62 in 7.0 mi NNW 13.8 mph 18.4 mph N/A Snow Light Snow
6:52 AM 12.2 °F 0.7 °F 8.6 °F 85% 29.61 in 7.0 mi NNW 8.1 mph 21.9 mph N/A Snow Light Snow
7:13 AM 12.2 °F -1.0 °F 8.6 °F 85% 29.61 in 5.0 mi NNW 10.4 mph 18.4 mph N/A Snow Light Snow
7:32 AM 10.4 °F -4.8 °F 6.8 °F 85% 29.62 in 4.0 mi NNW 12.7 mph 21.9 mph N/A Snow Light Snow
7:53 AM 8.6 °F -4.7 °F 5.0 °F 85% 29.63 in 7.0 mi NNW 9.2 mph 18.4 mph N/A Snow Light Snow
8:13 AM 8.6 °F -3.7 °F 5.0 °F 85% 29.64 in 4.0 mi North 8.1 mph - N/A Snow Light Snow
8:33 AM 8.6 °F -1.3 °F 5.0 °F 85% 29.65 in 10.0 mi North 5.8 mph - N/A Snow Light Snow
8:53 AM 8.6 °F -3.7 °F 5.0 °F 85% 29.64 in 7.0 mi North 8.1 mph - N/A Snow Light Snow
9:13 AM 8.6 °F -1.3 °F 3.2 °F 79% 29.62 in 7.0 mi NNW 5.8 mph - N/A Snow Light Snow
9:33 AM 8.6 °F -2.6 °F 3.2 °F 79% 29.61 in 5.0 mi North 6.9 mph 19.6 mph N/A Snow Light Snow
9:53 AM 8.6 °F -2.6 °F 3.2 °F 79% 29.61 in 5.0 mi North 6.9 mph - N/A Snow Light Snow
10:13 AM 8.6 °F -3.7 °F 3.2 °F 79% 29.61 in 4.0 mi North 8.1 mph - N/A Snow Light Snow
10:33 AM 8.6 °F -2.6 °F 3.2 °F 79% 29.60 in 5.0 mi North 6.9 mph - N/A Snow Light Snow
10:53 AM 8.6 °F -2.6 °F 3.2 °F 79% 29.60 in 1.2 mi North 6.9 mph - N/A Snow Light Snow
11:13 AM 10.4 °F -0.4 °F 3.2 °F 73% 29.59 in 2.5 mi NNW 6.9 mph - N/A Snow Light Snow
11:33 AM 8.6 °F -4.7 °F 3.2 °F 79% 29.59 in 4.0 mi NNW 9.2 mph 17.3 mph N/A Snow Light Snow
11:53 AM 8.6 °F -4.7 °F 3.2 °F 79% 29.59 in 7.0 mi NNW 9.2 mph 17.3 mph N/A   Overcast
12:13 PM 8.6 °F -7.7 °F 1.4 °F 73% 29.59 in 10.0 mi NW 13.8 mph 20.7 mph N/A   Overcast
12:33 PM 8.6 °F -5.5 °F 1.4 °F 73% 29.59 in 7.0 mi NNW 10.4 mph 19.6 mph N/A   Overcast
12:53 PM 8.6 °F -5.5 °F 1.4 °F 73% 29.59 in 7.0 mi NNW 10.4 mph 18.4 mph N/A   Overcast
1:13 PM 6.8 °F -7.8 °F -0.4 °F 72% 29.58 in 7.0 mi NNW 10.4 mph 20.7 mph N/A   Overcast
1:33 PM 6.8 °F -5.9 °F 1.4 °F 79% 29.59 in 4.0 mi North 8.1 mph 17.3 mph N/A   Haze
1:53 PM 6.8 °F -5.9 °F -0.4 °F 72% 29.58 in 10.0 mi North 8.1 mph - N/A   Overcast
2:13 PM 6.8 °F -5.9 °F -0.4 °F 72% 29.59 in 10.0 mi North 8.1 mph 17.3 mph N/A   Overcast
2:33 PM 6.8 °F -4.8 °F -0.4 °F 72% 29.58 in 10.0 mi North 6.9 mph - N/A   Overcast
2:52 PM 6.8 °F -4.8 °F -0.4 °F 72% 29.59 in 10.0 mi North 6.9 mph - N/A   Overcast
3:13 PM 6.8 °F -7.8 °F 1.4 °F 79% 29.59 in 4.0 mi NW 10.4 mph 16.1 mph N/A Snow Light Snow
3:33 PM 6.8 °F -5.9 °F -0.4 °F 72% 29.60 in 10.0 mi NW 8.1 mph 16.1 mph N/A   Overcast
3:52 PM 6.8 °F -5.9 °F -0.4 °F 72% 29.60 in 10.0 mi NW 8.1 mph 17.3 mph N/A   Overcast
4:13 PM 6.8 °F -3.5 °F -0.4 °F 72% 29.60 in 10.0 mi NNW 5.8 mph - N/A   Overcast
4:33 PM 5.0 °F -6.9 °F -0.4 °F 78% 29.60 in 10.0 mi NNW 6.9 mph - N/A   Overcast
4:52 PM 5.0 °F -6.9 °F -0.4 °F 78% 29.60 in 10.0 mi NNW 6.9 mph 17.3 mph N/A   Overcast
5:13 PM 5.0 °F -8.1 °F -0.4 °F 78% 29.61 in 10.0 mi NW 8.1 mph - N/A   Overcast
5:33 PM 5.0 °F -8.1 °F -0.4 °F 78% 29.61 in 10.0 mi NNW 8.1 mph - N/A   Overcast
5:52 PM 5.0 °F -6.9 °F -0.4 °F 78% 29.61 in 10.0 mi NNW 6.9 mph - N/A   Overcast
6:13 PM 5.0 °F -8.1 °F -0.4 °F 78% 29.61 in 10.0 mi NNW 8.1 mph - N/A   Overcast
6:33 PM 5.0 °F -9.1 °F -0.4 °F 78% 29.61 in 10.0 mi NW 9.2 mph - N/A   Overcast
6:52 PM 5.0 °F -10.0 °F -0.4 °F 78% 29.61 in 10.0 mi NNW 10.4 mph 18.4 mph N/A   Overcast
7:13 PM 5.0 °F -10.8 °F -0.4 °F 78% 29.61 in 10.0 mi NNW 11.5 mph 20.7 mph N/A   Overcast
7:32 PM 3.2 °F -13.9 °F -0.4 °F 85% 29.60 in 10.0 mi NW 12.7 mph 21.9 mph N/A   Overcast
7:53 PM 3.2 °F -11.3 °F -0.4 °F 85% 29.60 in 10.0 mi NNW 9.2 mph 16.1 mph N/A   Overcast
8:13 PM 3.2 °F -12.2 °F -2.2 °F 78% 29.60 in 10.0 mi North 10.4 mph 16.1 mph N/A   Overcast
8:32 PM 3.2 °F -12.2 °F -2.2 °F 78% 29.60 in 10.0 mi NNW 10.4 mph 17.3 mph N/A   Overcast
8:53 PM 3.2 °F -11.3 °F -2.2 °F 78% 29.60 in 10.0 mi NNW 9.2 mph 18.4 mph N/A   Overcast
9:13 PM 3.2 °F -14.6 °F -2.2 °F 78% 29.60 in 10.0 mi NNW 13.8 mph 20.7 mph N/A   Overcast
9:32 PM 3.2 °F -10.3 °F -2.2 °F 78% 29.60 in 10.0 mi NNW 8.1 mph 20.7 mph N/A   Overcast
9:53 PM 3.2 °F -9.1 °F -2.2 °F 78% 29.60 in 10.0 mi North 6.9 mph - N/A   Overcast
10:13 PM 3.2 °F -11.3 °F -2.2 °F 78% 29.59 in 10.0 mi North 9.2 mph - N/A   Overcast
10:33 PM 3.2 °F -9.1 °F -2.2 °F 78% 29.59 in 10.0 mi North 6.9 mph - N/A   Overcast
10:53 PM 3.2 °F -7.8 °F -2.2 °F 78% 29.59 in 10.0 mi North 5.8 mph - N/A   Overcast
11:12 PM 3.2 °F -7.8 °F -2.2 °F 78% 29.59 in 5.0 mi NNW 5.8 mph - N/A Snow Light Snow
11:33 PM 1.4 °F -8.3 °F -2.2 °F 85% 29.59 in 4.0 mi North 4.6 mph - N/A Snow Light Snow
11:53 PM 1.4 °F -9.9 °F -2.2 °F 85% 29.60 in 5.0 mi North 5.8 mph - N/A Snow Light Snow